Wind_Speed
24 24 24 25 27 28 29 30 30 31 32 35 36 36 35 36 37 37 37 38 39 40 40 41 41 41 41 40 40 40 41 41 41 41 42 41 42 41 41 42 42 42 42 43
24 24 24 24 25 27 28 29 30 31 32 34 35 35 35 35 36 36 37 37 37 38 39 40 40 40 40 40 40 40 40 41 41 41 42 42 41 41 41 42 41 41 41 41
24 23 24 24 25 27 27 29 30 31 31 33 34 34 33 34 35 36 37 37 37 37 37 38 38 38 38 39 40 40 39 40 41 41 42 42 41 41 41 41 41 40 41 41
23 23 23 24 25 27 28 29 30 30 30 31 32 34 31 31 33 34 35 35 35 35 35 36 36 36 37 37 38 39 39 39 40 40 41 41 40 40 40 40 40 40 41 41
24 23 24 24 25 27 28 29 29 30 30 31 30 33 31 30 31 32 33 34 34 35 35 34 34 35 36 36 37 37 37 38 38 39 39 39 39 40 40 40 40 40 40 41
24 24 24 25 25 27 28 29 29 29 30 30 29 31 30 28 29 30 31 32 33 34 35 35 34 33 34 35 35 36 36 37 37 37 36 37 38 38 39 39 39 39 39 39
25 24 24 25 26 26 27 27 28 29 29 29 27 29 29 27 28 28 29 30 31 32 33 33 33 33 33 34 34 34 35 35 35 35 35 35 35 36 36 37 37 37 37 37
25 24 24 24 25 25 25 26 27 28 29 28 26 27 25 26 26 27 27 28 29 30 31 31 32 32 33 33 33 33 34 34 34 34 34 34 34 35 35 35 35 34 34 34
24 24 23 24 24 24 25 25 25 27 27 28 28 27 25 26 26 26 26 27 27 28 29 30 30 30 31 31 31 31 32 32 33 33 33 33 33 33 33 33 33 32 32 32
24 24 23 24 24 23 24 23 24 25 27 27 28 27 25 25 26 25 26 27 28 28 28 29 28 29 30 30 30 30 30 30 31 32 32 32 32 32 32 32 31 31 32 32
23 24 24 23 23 23 23 23 23 25 26 27 28 26 25 26 25 25 26 26 27 28 28 28 28 28 29 29 29 29 29 28 29 30 30 31 31 30 30 30 30 31 32 32
23 25 24 24 23 23 24 23 23 25 27 27 27 26 24 24 25 25 25 25 26 26 26 26 27 28 28 29 29 29 29 29 29 29 29 29 29 30 29 29 30 31 31 31
23 24 25 24 23 23 24 24 24 26 27 26 27 25 24 25 25 25 25 25 25 25 25 24 26 26 26 27 27 28 28 29 29 28 28 28 29 29 29 29 29 30 30 30
24 25 24 24 24 24 24 24 25 26 26 26 26 25 24 25 25 25 24 25 25 25 25 24 24 24 24 25 25 26 26 27 27 27 27 28 28 28 28 28 29 29 29 30
24 24 24 24 24 25 25 25 25 25 25 26 25 25 23 24 25 24 24 25 25 24 25 24 23 23 24 24 24 25 24 25 25 25 26 27 27 28 29 29 29 29 30 30
24 24 24 24 24 25 25 25 25 24 24 25 25 24 23 24 24 24 24 24 24 23 23 23 23 23 23 24 24 24 24 25 25 25 26 27 27 28 29 29 29 29 30 30
25 25 24 24 25 26 25 24 24 24 24 24 24 23 22 23 22 23 23 23 23 22 22 23 23 23 24 24 24 24 25 25 26 26 26 27 27 28 28 29 29 29 29 29
24 24 25 25 25 26 24 24 24 24 23 23 24 23 23 23 22 22 23 23 23 23 22 23 23 23 24 24 25 25 26 26 26 26 27 27 27 27 27 28 28 28 28 28
23 24 25 25 26 26 25 24 24 24 23 23 23 22 23 23 23 23 23 23 23 24 24 24 24 24 24 25 26 26 26 26 26 27 27 27 27 27 28 28 28 28 27 27
25 25 25 25 26 26 25 24 24 25 24 22 22 23 23 23 22 22 23 23 24 24 23 24 24 24 25 25 26 27 26 26 26 27 27 27 27 27 27 27 27 26 26 26
25 26 26 26 26 26 25 25 25 25 24 23 22 22 23 23 22 22 23 23 24 24 23 23 24 24 25 25 25 26 26 26 27 28 28 27 27 27 27 27 26 25 26 26
25 26 26 27 27 26 26 26 26 25 24 24 22 22 23 23 22 22 23 24 24 24 24 24 24 25 25 25 25 26 26 27 27 27 27 27 26 26 26 25 25 25 25 26
26 26 27 27 27 27 26 25 25 26 25 25 24 23 24 24 23 23 23 24 24 25 25 25 26 26 25 25 26 25 25 26 26 26 26 26 26 26 25 24 24 24 25 25
27 28 28 28 27 27 27 26 26 27 26 25 25 25 25 25 24 24 24 24 24 25 25 25 25 25 25 26 26 26 25 25 25 26 25 26 26 26 25 24 24 24 24 25
28 28 28 28 28 27 27 27 27 28 27 26 26 26 26 25 25 24 25 25 24 25 25 24 24 24 25 25 25 25 25 25 25 25 25 25 25 24 24 24 24 25 24 24
27 28 28 28 27 28 27 28 28 28 27 26 26 26 25 26 26 25 24 25 25 25 25 24 23 23 23 23 24 24 24 25 25 25 25 25 25 24 24 23 23 23 24 24
Wind_Direction
277 277 281 284 284 284 281 279 278 276 273 272 271 269 267 266 267 266 267 267 267 265 265 265 266 266 266 266 267 267 267 266 267 267 268 268 268 268 268 269 270 270 270 269
279 280 282 284 287 287 284 283 281 278 276 275 273 270 269 268 268 268 269 269 268 267 266 266 266 266 266 265 266 267 268 266 266 267 268 268 268 268 269 269 270 271 271 270
281 281 281 284 288 290 287 286 285 283 279 277 275 272 270 270 270 270 270 271 269 268 267 266 266 266 267 266 266 267 267 268 267 268 268 267 268 267 268 269 270 271 271 270
279 280 282 285 288 290 290 288 287 285 282 280 279 276 272 273 273 273 272 271 270 268 267 267 266 266 266 267 267 267 266 268 268 268 268 267 267 268 268 269 270 271 271 270
279 281 283 286 288 289 291 290 288 286 283 281 280 279 277 276 275 274 273 271 270 268 268 267 268 267 267 267 266 266 266 267 267 268 268 267 268 268 269 270 271 271 271 270
280 282 284 287 289 290 292 291 289 288 286 284 284 282 280 280 278 276 274 272 270 269 268 268 268 268 267 267 267 267 266 266 267 268 268 268 269 269 269 269 270 271 271 271
281 283 286 289 290 291 293 295 294 292 289 289 288 285 285 283 280 279 276 273 271 270 269 269 269 269 268 267 267 267 268 267 268 268 268 270 270 270 269 269 270 271 272 271
284 285 288 291 293 295 296 297 298 296 292 290 288 288 290 287 285 283 280 275 274 273 272 271 271 271 268 267 267 268 268 268 268 268 269 270 271 272 271 271 271 272 272 272
286 288 289 290 293 296 296 296 298 297 294 292 291 292 292 290 288 288 284 278 275 275 274 273 271 271 270 268 268 270 270 270 269 270 271 271 273 274 273 272 271 272 273 272
286 287 288 290 292 295 296 297 298 297 296 294 294 296 297 294 291 289 287 281 276 275 275 274 273 272 271 270 271 272 273 272 271 272 273 273 273 275 275 273 271 271 272 273
283 286 287 288 291 294 294 295 296 296 295 294 296 298 300 298 294 290 288 285 280 276 275 275 275 273 273 271 271 272 274 274 273 274 274 273 274 274 273 272 272 271 273 273
280 282 285 287 290 291 292 293 295 296 296 293 293 297 298 296 295 291 290 286 283 280 278 276 275 275 273 272 271 272 273 274 274 275 275 275 275 275 273 273 273 273 272 273
277 279 282 285 288 290 291 293 293 295 295 291 290 296 297 297 295 291 289 287 285 282 278 276 276 276 275 274 274 274 274 274 275 275 275 276 278 277 275 274 274 274 273 275
274 277 280 285 288 289 290 291 291 292 291 292 293 297 296 296 295 291 288 288 286 284 280 279 279 278 277 276 276 278 276 275 275 276 277 278 279 278 276 276 276 276 276 277
273 276 281 283 286 287 289 290 290 289 290 292 294 294 297 295 294 292 290 289 287 285 283 280 280 280 278 278 278 278 276 275 278 279 278 279 279 278 278 277 277 277 277 278
272 276 279 281 284 286 287 290 291 290 292 293 293 295 297 295 291 292 292 290 287 285 283 281 280 279 279 279 279 278 277 277 279 281 280 280 281 280 280 280 278 278 278 279
272 276 279 282 283 284 287 291 290 290 292 295 296 298 296 294 291 292 290 288 285 284 282 280 280 280 280 281 279 278 279 279 280 281 281 281 281 281 281 281 279 278 278 279
274 277 280 283 285 285 291 288 290 291 292 294 296 297 296 293 292 291 289 287 286 284 284 284 283 282 282 281 279 279 280 281 281 282 282 281 281 281 280 279 279 278 279 280
276 279 282 285 286 286 287 289 291 293 291 292 295 296 295 292 290 290 290 288 286 284 283 283 283 283 283 282 282 281 281 282 281 282 282 281 282 281 280 280 280 278 278 279
277 279 281 285 286 286 286 287 290 292 292 293 294 294 294 294 291 291 290 289 288 286 284 284 284 284 284 284 284 281 280 282 284 285 285 284 283 282 283 282 280 278 278 281
276 277 279 283 286 287 286 285 289 290 292 291 293 293 294 295 295 293 291 289 288 286 286 286 286 286 286 285 284 281 280 282 284 285 285 283 282 283 283 282 280 279 278 281
274 276 279 282 285 289 287 285 286 288 288 288 290 292 295 295 295 295 292 290 289 287 286 287 287 286 287 286 284 282 281 282 283 284 285 285 284 285 284 281 280 279 280 281
272 275 279 282 286 288 285 283 283 285 286 287 287 289 291 291 293 294 293 291 290 289 288 288 288 286 285 285 285 285 284 283 283 283 285 286 286 285 284 282 280 280 282 283
270 272 275 279 283 286 283 280 281 283 285 285 283 285 288 290 291 292 292 291 292 292 291 290 289 286 285 285 285 285 286 285 285 285 285 285 285 284 283 281 281 282 283 285
269 272 276 279 282 285 284 281 281 282 283 283 282 284 285 287 290 292 292 290 291 294 293 292 291 289 286 285 284 285 286 286 286 286 284 284 284 284 283 282 282 282 282 284
270 272 275 278 280 282 283 281 281 282 283 282 281 282 283 286 289 291 290 288 291 294 293 292 291 290 288 285 285 286 286 287 287 286 285 284 284 282 281 281 282 282 282 283
Height
5700 5700 5699 5698 5696 5695 5693 5691 5690 5690 5689 5688 5688 5688 5690 5690 5691 5692 5692 5692 5693 5694 5695 5695 5696 5696 5697 5697 5698 5698 5699 5698 5698 5698 5698 5698 5698 5698 5698 5698 5698 5697 5697 5697
5694 5694 5693 5691 5689 5687 5686 5684 5683 5682 5681 5679 5679 5680 5681 5681 5682 5683 5683 5683 5683 5683 5684 5685 5686 5686 5687 5687 5688 5688 5688 5688 5688 5688 5688 5688 5688 5688 5688 5688 5687 5687 5687 5686
5687 5688 5686 5685 5683 5681 5680 5678 5676 5674 5672 5671 5670 5671 5673 5673 5673 5673 5673 5673 5673 5674 5674 5674 5675 5676 5677 5677 5678 5678 5678 5678 5678 5678 5677 5677 5678 5678 5678 5678 5677 5677 5676 5676
5681 5681 5680 5679 5677 5675 5673 5671 5669 5666 5664 5663 5662 5660 5664 5664 5664 5664 5664 5664 5664 5664 5664 5665 5665 5666 5667 5668 5668 5668 5669 5669 5668 5668 5667 5667 5667 5667 5667 5667 5667 5666 5666 5665
5675 5675 5674 5673 5671 5669 5666 5664 5662 5659 5657 5656 5655 5653 5656 5655 5655 5655 5655 5654 5654 5655 5655 5655 5656 5657 5657 5658 5658 5659 5659 5659 5658 5658 5658 5657 5657 5657 5657 5656 5656 5656 5656 5656
5669 5668 5668 5667 5665 5662 5660 5658 5655 5652 5650 5649 5649 5646 5647 5647 5647 5647 5647 5646 5645 5646 5646 5646 5647 5647 5648 5648 5649 5649 5649 5649 5649 5648 5648 5647 5647 5647 5646 5646 5646 5646 5646 5646
5663 5663 5662 5660 5659 5657 5654 5652 5649 5645 5643 5643 5642 5639 5640 5640 5639 5639 5638 5637 5637 5637 5637 5637 5637 5638 5639 5639 5640 5640 5640 5640 5640 5639 5639 5638 5638 5637 5637 5636 5636 5636 5636 5636
5656 5656 5655 5654 5652 5650 5648 5645 5643 5640 5637 5636 5635 5633 5635 5633 5631 5630 5629 5629 5628 5628 5628 5628 5629 5629 5630 5630 5631 5631 5631 5631 5631 5630 5630 5629 5629 5628 5628 5627 5627 5627 5627 5627
5649 5649 5649 5647 5646 5644 5641 5639 5638 5634 5631 5629 5628 5628 5627 5626 5624 5623 5621 5621 5620 5620 5620 5620 5621 5621 5621 5621 5622 5622 5622 5622 5622 5622 5621 5621 5620 5620 5619 5618 5618 5619 5619 5618
5643 5643 5643 5641 5640 5638 5636 5634 5632 5628 5624 5622 5622 5621 5620 5618 5617 5616 5614 5613 5613 5613 5612 5612 5613 5613 5613 5613 5614 5614 5614 5614 5613 5613 5612 5612 5612 5611 5611 5610 5610 5610 5610 5610
5637 5637 5636 5635 5634 5633 5631 5629 5625 5623 5620 5617 5615 5618 5615 5612 5610 5609 5608 5606 5605 5605 5605 5605 5605 5605 5605 5606 5606 5606 5606 5606 5605 5605 5604 5604 5604 5603 5603 5602 5602 5602 5602 5602
5631 5630 5629 5629 5628 5626 5624 5623 5620 5618 5615 5612 5610 5613 5609 5607 5604 5603 5601 5600 5599 5598 5598 5598 5598 5598 5598 5598 5598 5599 5598 5598 5598 5597 5597 5596 5595 5595 5595 5595 5594 5594 5594 5594
5624 5623 5623 5622 5624 5621 5618 5617 5615 5612 5609 5606 5604 5607 5604 5601 5598 5596 5595 5593 5592 5592 5591 5591 5590 5590 5590 5591 5591 5591 5591 5591 5590 5590 5589 5588 5588 5587 5587 5587 5586 5586 5586 5585
5617 5616 5617 5617 5615 5613 5612 5611 5609 5606 5603 5601 5600 5599 5598 5595 5592 5591 5589 5587 5586 5585 5584 5584 5583 5583 5584 5584 5584 5584 5583 5583 5582 5582 5581 5581 5580 5579 5579 5579 5578 5578 5578 5577
5610 5610 5610 5609 5608 5607 5605 5605 5603 5600 5598 5596 5595 5593 5591 5589 5586 5584 5582 5581 5580 5579 5578 5577 5577 5577 5577 5577 5577 5577 5576 5576 5575 5575 5574 5573 5572 5572 5571 5570 5570 5570 5569 5568
5604 5603 5603 5603 5602 5600 5599 5599 5597 5595 5593 5591 5589 5588 5586 5583 5580 5578 5576 5575 5574 5573 5572 5572 5571 5571 5571 5571 5571 5570 5570 5569 5568 5567 5566 5565 5564 5564 5563 5562 5562 5561 5561 5560
5598 5597 5596 5596 5596 5593 5593 5594 5591 5589 5588 5586 5583 5583 5580 5577 5575 5573 5571 5570 5569 5568 5567 5566 5566 5565 5565 5565 5564 5563 5563 5562 5561 5560 5559 5558 5557 5556 5555 5554 5553 5553 5552 5551
5591 5590 5589 5589 5589 5587 5591 5587 5585 5583 5582 5580 5578 5576 5574 5572 5570 5568 5566 5565 5564 5563 5562 5561 5560 5560 5559 5558 5557 5557 5556 5555 5553 5552 5551 5550 5549 5548 5547 5546 5545 5544 5543 5543
5585 5584 5583 5582 5581 5580 5582 5581 5579 5577 5576 5575 5572 5571 5568 5566 5565 5563 5562 5560 5558 5557 5556 5555 5554 5553 5552 5552 5551 5550 5548 5547 5546 5545 5543 5542 5541 5540 5539 5538 5537 5536 5535 5535
5579 5578 5578 5576 5574 5574 5577 5574 5572 5571 5570 5569 5567 5564 5562 5560 5559 5559 5556 5554 5553 5551 5550 5549 5547 5546 5546 5545 5543 5542 5541 5540 5539 5537 5536 5534 5533 5532 5531 5530 5529 5528 5527 5527
5572 5571 5571 5569 5567 5567 5569 5567 5566 5565 5565 5562 5560 5558 5556 5554 5553 5552 5550 5549 5547 5545 5543 5542 5541 5539 5538 5537 5536 5534 5534 5533 5531 5529 5528 5526 5525 5524 5523 5522 5521 5520 5520 5519
5565 5565 5564 5562 5561 5564 5562 5560 5559 5558 5556 5555 5554 5552 5550 5549 5547 5545 5544 5542 5540 5539 5537 5536 5534 5533 5531 5530 5529 5527 5526 5525 5523 5521 5520 5518 5517 5516 5515 5514 5513 5513 5512 5511
5558 5559 5558 5557 5558 5556 5554 5553 5552 5551 5550 5548 5547 5546 5544 5542 5541 5539 5537 5535 5534 5532 5531 5529 5527 5526 5524 5522 5521 5520 5519 5517 5515 5514 5513 5511 5510 5508 5507 5506 5506 5505 5505 5504
5552 5551 5550 5550 5550 5549 5547 5546 5545 5544 5543 5541 5540 5539 5537 5536 5534 5532 5531 5529 5527 5525 5523 5521 5520 5518 5517 5515 5514 5513 5511 5510 5508 5507 5505 5504 5503 5501 5500 5499 5498 5498 5497 5497
5544 5543 5543 5542 5543 5541 5540 5539 5538 5537 5535 5534 5533 5531 5530 5529 5527 5525 5524 5522 5520 5518 5516 5514 5512 5511 5509 5508 5506 5505 5504 5502 5501 5499 5498 5497 5496 5494 5493 5492 5491 5491 5490 5489
5536 5536 5536 5535 5535 5533 5533 5531 5530 5529 5528 5527 5525 5524 5523 5521 5520 5518 5516 5515 5513 5511 5509 5507 5506 5504 5502 5500 5499 5498 5496 5495 5494 5492 5491 5490 5489 5487 5486 5486 5485 5483 5482 5481